Weather in Severoonezhsk

Russia / Arkhangel'skaya Oblast'     62°35′27″N   39°50′27″E
temp.,
°C
wind,
m/s
gust,
m/s
humid.,
%
clouds,
%
prec.,
mm/h
press.,
hPa
HPBL,
m
18 may, tue
tue1800:00+12se21082100 0.0 1017189
03:00+12ese31181100 0.0 1017248
06:00+14se41275100 0.0 1016376
09:00+19se51264100 0.0 1015614
12:00+24se69485 0.0 10141208
15:00+27sse69450 0.0 10131524
18:00+26sse5105079 0.0 10111339
21:00+21sse412715 0.1 1011413
19 may, wed
wed1900:00+18sse4148428 0.0 1012448
03:00+17se310935 0.0 1012283
06:00+18sse311845 0.0 1011371
09:00+24sse495490 0.0 1011702
12:00+29s583618 0.0 10111562
15:00+30s59235 0.0 10103546
18:00+29sse510323 0.0 10091862
21:00+23sse414500 0.0 1010629
20 may, thu
thu2000:00+20sse413665 0.0 1010544
03:00+18se311804 0.0 1010363
06:00+19sse31077100 0.0 1010455
09:00+23sse585664 0.0 1009755
12:00+27sw26455 0.1 10091799
15:00+30s610295 0.1 10073633
18:00+28sse58353 0.0 10052675
21:00+23s51246100 0.0 1005806
21 may, fri
fri2100:00+16sse258483 0.3 1005158
03:00+16sse411814 0.3 1005553
06:00+17s511745 0.0 10041151
09:00+19s7115664 0.1 10051617
12:00+18sw5863100 0.4 10051384
15:00+17wsw575589 0.7 10071367
18:00+16w57509 0.0 10081396
21:00+13wsw386255 0.0 1009376
22 may, sat
sat2200:00+10sw39755 0.0 1009271
03:00+8sw210742 0.0 1010274
06:00+11wsw411635 0.0 1011699
09:00+14wsw58425 0.0 10131941
12:00+16wsw683419 0.0 10132289
15:00+17wsw57325 0.0 10142350
18:00+16wsw4737100 0.0 10162198
21:00+12wsw2461100 0.0 101783